星链-34736 (STARLINK-34736)

导读 | 豆包AI

STARLINK-34736是美国SpaceX星链星座的一员,于2025年7月19日发射升空。星链项目旨在构建全球卫星互联网星座,为全球提供低延迟、高速率的宽带网络覆盖。这颗卫星入轨后,将和其他星链卫星协同工作,进一步拓展星座服务范围,提升星座整体的通信能力,助力全球无缝互联网络的构建。

Basic Information
目录编号:
64846
目录名称:
STARLINK-34736
国际标识:
2025-152E
轨道中心:
EARTH
卫星名称:
星链-34736
卫星全名:
星链-34736 (STARLINK-34736)
卫星状态:
在轨 (已飞行284 天)
发射日期:
2025-07-19 UTC
国别 :
美国 (US)
星等 :
--
Orbit Information
数据来源 国际轨道数据 AOE轨道数据
星历时间 2026-04-29T11:53:33+0800
11小时前
查看轨道信息
2026-04-28T07:00:00+0800
1天前
查看轨道信息
半长轴 6927.617km 6927.637km
偏心率 0.0001957 0.0001886
轨道倾角 97.559° 97.566°
近地点辐角 92.739° 90.563°
升交点赤经 335.236° 334.061°
平近点角 267.406° 228.359°
近地点 548.124km 548.193km
远地点 550.836km 550.807km
周期 95.639分钟 95.640分钟
每日圈数 15.056603 15.056538
Detailed Information
固有亮度:
5
最大亮度:
2.5
卫星平台:
Starlink V1.0
覆盖范围:
全球
运营商:
太空探索技术公司
运营商所在国:
美国
制造商(研发单位):
太空探索技术公司
制造商所在国:
美国
使用方式:
暂无
Satellite Introduction
Starlink 计划是 SpaceX 推出的全球卫星互联网项目,通过发射低轨道卫星,为全球尤其是偏远地区提供高速、低延迟的互联网服务。自 2019 年起,Starlink 已部署数千颗卫星,旨在缩小全球数字鸿沟,推动互联网普及。该项目还为军事、航空等行业提供通信支持,带来广泛经济效益。
2D Orbit Map
3D Orbit Map
Orbit Altitude Analysis Chart
Orbit Inclination Analysis Chart
Orbit Comprehensive Analysis Chart
View Comprehensive Chart